Вернуться в каталог

STARLINK-4070

АктивенСвязьVLEO
NORAD 52664·PAYLOAD·🇺🇸 United States

Запущен May 18, 2022 с Cape Canaveral Space Force Station

Loading…

Ближайшие Пролёты (ближайшие 24 часа)

TLE

СвежийSource: CelesTrak SupGP

Эпоха: Sep 14, 2026, 20:40 UTC

1 52664C 22053J   26257.86159722  .00023451  00000+0  14706-2 0  2578
2 52664  53.1606  24.2658 0001178  82.8657 275.9731 15.08824618    14

Отслеживайте STARLINK-4070 в реальном времени с AllMySat

Download on the App Store